TimeEDT,TemperatureF,Dew PointF,Humidity,Sea Level PressureIn,VisibilityMPH,Wind Direction,Wind SpeedMPH,Gust SpeedMPH,PrecipitationIn,Events,Conditions,WindDirDegrees,DateUTC
12:53 AM,53.1,43.0,69,30.28,10.0,NE,5.8,-,N/A,,Clear,40,2013-03-29 04:53:00
1:53 AM,51.1,42.1,71,30.28,10.0,NNE,4.6,-,N/A,,Clear,30,2013-03-29 05:53:00
2:53 AM,48.9,41.0,74,30.27,10.0,NE,4.6,-,N/A,,Clear,50,2013-03-29 06:53:00
3:53 AM,48.9,42.1,77,30.26,10.0,NNE,4.6,-,N/A,,Clear,30,2013-03-29 07:53:00
4:53 AM,48.0,42.1,80,30.25,10.0,NE,4.6,-,N/A,,Clear,40,2013-03-29 08:53:00
5:53 AM,46.9,42.1,83,30.26,10.0,Calm,Calm,-,N/A,,Clear,0,2013-03-29 09:53:00
6:53 AM,46.9,41.0,80,30.27,10.0,NE,4.6,-,N/A,,Clear,50,2013-03-29 10:53:00
7:53 AM,46.0,41.0,83,30.29,10.0,ENE,3.5,-,N/A,,Clear,60,2013-03-29 11:53:00
8:53 AM,55.0,45.0,69,30.31,10.0,ENE,5.8,-,N/A,,Clear,70,2013-03-29 12:53:00
9:53 AM,62.1,42.1,48,30.33,10.0,ENE,9.2,-,N/A,,Clear,70,2013-03-29 13:53:00
10:53 AM,66.9,37.9,34,30.33,10.0,East,11.5,-,N/A,,Clear,80,2013-03-29 14:53:00
11:53 AM,71.1,35.1,27,30.31,10.0,ENE,8.1,-,N/A,,Clear,70,2013-03-29 15:53:00
12:53 PM,73.0,33.1,23,30.29,10.0,Variable,6.9,-,N/A,,Clear,0,2013-03-29 16:53:00
1:53 PM,75.0,32.0,21,30.27,10.0,ENE,6.9,-,N/A,,Clear,70,2013-03-29 17:53:00
2:53 PM,75.0,30.9,20,30.25,10.0,Variable,4.6,-,N/A,,Clear,0,2013-03-29 18:53:00
3:53 PM,72.0,39.9,31,30.23,10.0,West,13.8,19.6,N/A,,Clear,280,2013-03-29 19:53:00
4:53 PM,72.0,41.0,33,30.21,10.0,WNW,15.0,-,N/A,,Clear,290,2013-03-29 20:53:00
5:53 PM,70.0,39.9,33,30.20,10.0,West,11.5,-,N/A,,Clear,280,2013-03-29 21:53:00
6:53 PM,66.9,50.0,54,30.21,10.0,WNW,10.4,-,N/A,,Clear,290,2013-03-29 22:53:00
7:53 PM,63.0,51.1,65,30.22,10.0,WNW,8.1,-,N/A,,Clear,290,2013-03-29 23:53:00
8:53 PM,60.1,50.0,69,30.23,10.0,NW,3.5,-,N/A,,Clear,320,2013-03-30 00:53:00
9:53 PM,57.9,51.1,78,30.25,10.0,NNW,3.5,-,N/A,,Clear,330,2013-03-30 01:53:00
10:53 PM,57.9,51.1,78,30.25,10.0,North,3.5,-,N/A,,Clear,360,2013-03-30 02:53:00
11:53 PM,55.9,50.0,80,30.25,10.0,NE,4.6,-,N/A,,Clear,40,2013-03-30 03:53:00